Dewpoint
40 41 42 43 42 42 42 43 43 43 43 43 43 43 42 42 41 39 39 42 36 32 30 28 28 28 27 26 25 28 37 38 39 36 34 35 32 29 26 25 26 27 27 26 28 25 23 31 33 24 30 42 41 41
41 42 43 41 41 41 43 43 43 43 43 42 42 43 43 42 42 41 37 41 41 34 30 32 32 31 30 33 33 32 33 38 39 37 37 34 31 31 28 25 29 24 28 26 28 26 34 41 38 41 42 41 40 38
42 43 41 41 41 41 42 43 43 43 43 42 41 42 43 42 42 41 39 40 39 33 33 33 33 34 37 35 39 34 37 39 40 40 35 33 29 32 28 28 28 32 34 28 30 37 39 39 39 40 40 40 41 40
42 41 42 41 40 40 41 40 40 41 41 41 41 41 41 41 42 43 40 41 38 35 28 31 35 33 37 39 42 40 38 39 40 39 34 33 31 34 30 31 29 31 34 31 35 39 39 39 39 39 40 40 40 40
42 41 41 40 40 41 41 43 44 44 43 43 42 42 42 41 41 42 41 41 40 34 29 28 36 37 40 40 39 41 40 39 39 38 36 35 34 34 34 34 32 36 34 32 30 38 36 37 39 37 36 35 37 39
43 42 41 40 41 41 43 44 43 43 42 43 41 41 43 42 41 39 32 38 41 37 31 28 33 36 37 39 40 39 40 40 39 38 35 34 36 35 33 31 34 37 38 39 37 39 40 41 39 38 37 36 36 37
43 43 43 43 43 43 44 44 44 43 43 42 41 43 44 44 40 33 32 37 41 38 32 29 29 34 36 38 39 37 37 36 35 34 33 33 35 35 33 32 34 37 38 41 41 39 39 40 35 39 37 37 38 37
42 43 43 43 44 44 42 42 42 43 44 42 42 42 41 42 39 38 41 41 40 36 34 28 28 31 36 32 31 36 32 33 32 31 32 32 34 33 34 33 34 38 38 39 38 30 31 35 34 33 35 34 33 33
41 41 41 43 43 41 40 41 42 42 43 41 42 40 37 36 33 38 42 42 41 36 31 30 27 26 34 31 32 32 33 28 31 30 31 33 30 31 32 32 32 30 31 33 34 34 33 33 34 34 33 33 32 31
40 40 40 41 42 42 41 41 40 41 41 40 39 35 32 36 42 40 36 33 34 34 32 29 31 28 32 31 30 30 31 28 25 29 32 29 28 33 31 31 31 30 32 33 31 32 32 32 33 33 33 33 33 32
37 39 39 40 41 41 41 41 40 39 38 36 34 33 37 41 36 33 30 29 29 28 31 31 31 29 34 28 27 31 27 28 23 26 26 25 26 30 32 33 33 33 33 33 33 33 33 33 32 32 32 32 31 31
35 37 39 39 39 40 40 40 40 36 34 37 37 38 35 30 29 28 27 29 29 26 30 30 31 32 32 33 30 29 26 27 22 29 24 20 26 33 33 33 33 33 33 33 33 33 33 33 33 32 30 30 29 29
34 36 38 38 37 37 37 38 40 40 37 35 29 27 24 26 24 24 22 26 26 30 31 31 29 32 30 29 26 23 21 22 27 23 22 23 30 32 32 31 31 32 32 32 32 33 32 32 31 30 28 28 28 26
32 35 37 36 36 36 37 39 40 37 32 27 25 24 26 25 27 27 27 28 30 32 32 30 28 27 27 25 24 22 26 26 21 20 17 26 29 30 31 30 29 29 30 30 30 30 29 29 28 28 28 27 24 22
31 35 36 34 34 35 37 39 38 33 30 26 25 24 26 28 30 30 30 29 31 31 28 26 25 25 24 24 25 24 22 20 21 17 21 29 30 30 29 28 28 28 29 29 29 28 28 27 27 26 26 25 23 23
31 35 32 33 33 35 36 37 34 32 28 28 27 24 24 25 28 27 27 27 30 27 28 25 21 21 23 23 19 19 17 14 17 22 27 30 30 29 29 28 28 28 29 29 29 28 28 27 26 25 20 18 18 18
31 30 30 32 34 35 34 28 28 25 28 27 24 25 24 25 26 27 28 28 31 27 24 22 19 22 23 20 18 21 16 19 23 28 30 31 29 29 29 28 28 28 29 29 28 27 27 26 22 18 17 17 17 16
28 27 29 32 35 33 30 27 25 22 25 26 26 26 25 25 26 27 28 31 28 27 28 25 25 21 18 15 18 21 27 26 28 29 30 30 29 29 29 28 28 28 29 28 27 26 25 22 18 17 18 18 20 19
26 27 31 35 33 32 26 22 26 22 25 28 27 27 26 26 27 27 29 31 29 29 27 25 23 22 21 23 20 26 28 28 28 28 28 29 29 29 29 29 29 29 28 27 26 25 23 21 20 20 20 21 19 17
28 30 33 32 32 29 19 22 26 23 21 26 27 27 26 26 27 27 26 27 27 26 23 22 23 24 24 27 26 28 28 29 29 28 27 28 28 29 29 29 28 28 27 26 24 23 22 22 22 21 20 20 18 17
27 31 30 29 27 28 27 25 21 22 24 25 28 27 26 26 26 26 26 27 23 24 22 24 24 25 29 29 28 28 29 29 28 29 28 27 28 29 29 29 28 27 26 24 23 23 22 21 20 20 19 17 16 15
25 28 28 28 25 24 22 23 21 22 22 25 26 27 25 25 25 25 26 25 24 23 24 24 25 26 29 30 29 29 29 29 29 29 29 29 28 28 28 28 28 26 25 24 24 22 21 20 18 17 15 14 13 12
26 27 27 25 21 18 16 24 18 19 18 25 24 23 24 24 25 26 23 24 23 25 26 26 25 27 29 29 30 29 28 29 28 28 29 29 29 29 28 28 28 27 25 24 23 22 20 17 14 14 14 13 11 10
27 26 23 22 17 16 20 19 22 20 21 22 21 19 20 22 26 25 22 22 24 26 25 25 27 27 29 30 29 28 28 28 27 28 28 28 27 28 28 28 28 27 26 25 23 20 18 14 13 14 13 11 10 9
20 20 21 19 20 19 16 17 18 18 14 19 18 16 17 23 18 20 20 21 25 27 27 26 26 27 25 26 27 28 28 28 27 27 27 28 27 28 28 28 27 27 25 22 20 18 16 14 13 13 11 9 7 6
11 14 17 17 19 19 18 13 16 16 14 16 16 20 21 18 15 13 16 24 26 28 28 28 26 26 26 26 26 27 28 28 28 27 27 28 27 26 26 25 25 24 24 23 20 18 15 14 13 12 11 9 6 6
13 14 19 20 20 22 20 18 19 16 14 13 19 19 16 14 14 15 22 27 27 27 27 28 27 27 27 27 29 29 29 28 27 27 27 27 27 27 26 24 24 24 24 22 21 19 16 14 12 11 10 8 7 6
16 19 17 19 19 19 14 15 15 15 14 17 18 15 13 11 12 22 26 27 26 27 27 27 27 27 28 28 29 27 27 26 27 27 26 25 25 25 25 25 24 25 23 22 21 18 16 14 12 10 10 10 7 3
19 22 20 16 16 18 16 14 15 17 21 20 16 16 17 23 26 25 25 24 23 25 25 26 27 28 27 27 27 27 28 27 26 25 24 24 24 25 23 23 22 21 20 19 18 16 14 13 12 11 10 9 6 2
17 21 17 13 14 13 15 19 19 23 25 23 24 25 25 24 25 25 23 24 24 24 24 25 27 28 28 27 26 27 27 27 27 27 25 24 25 24 23 22 21 19 18 17 16 15 14 11 10 8 7 5 4 3
17 17 17 16 14 15 17 23 23 23 23 24 24 23 23 24 25 25 25 24 25 25 22 23 25 27 27 28 28 28 28 29 27 28 27 27 25 24 22 21 19 18 16 15 13 12 11 11 10 9 8 7 5 5
11 13 13 15 17 20 22 21 20 19 19 21 22 24 24 23 21 24 26 26 24 25 26 23 22 24 28 28 29 31 31 29 26 26 25 24 23 23 21 20 19 17 15 13 12 11 11 10 9 8 7 6 5 4
9 11 11 14 16 18 20 20 19 19 19 19 18 19 19 19 18 20 23 23 25 27 28 29 28 28 29 29 28 27 26 26 26 26 25 23 21 21 20 20 18 16 14 13 12 10 9 9 8 7 7 5 4 3
Wind_Speed
33 35 36 36 36 38 40 41 39 37 36 36 36 36 37 36 36 30 23 23 30 19 16 28 24 20 17 25 27 16 16 25 15 13 11 8 11 22 18 31 23 19 14 14 6 8 21 11 5 13 6 4 9 11
31 33 34 31 30 28 27 30 32 31 31 32 32 32 36 37 36 34 24 21 24 22 8 27 19 20 31 28 17 17 16 9 15 10 10 7 3 7 19 24 14 36 21 17 16 11 2 3 3 3 7 12 8 14
31 29 25 21 19 19 17 12 14 20 23 25 26 28 30 33 35 36 22 17 17 20 12 13 14 27 23 30 24 13 11 13 13 15 10 7 8 8 18 23 8 6 7 14 8 6 8 11 12 13 15 18 15 12
24 20 20 19 16 17 17 15 12 12 14 16 20 23 26 28 31 37 27 18 22 5 13 12 16 32 24 15 16 28 34 33 10 7 10 8 11 5 14 6 20 12 13 12 3 9 15 6 10 12 13 11 10 5
21 18 18 17 16 17 19 19 18 15 15 16 16 24 29 31 31 28 31 21 31 18 9 10 4 11 11 19 27 26 29 30 20 7 9 14 6 6 3 3 16 9 10 18 20 19 12 9 17 13 11 9 10 6
22 16 16 15 16 17 16 8 5 6 10 11 20 35 40 48 40 15 6 12 23 17 4 4 1 6 2 5 23 26 30 26 3 4 5 4 3 5 10 15 5 8 6 7 8 7 6 17 17 9 9 10 7 7
25 19 18 15 15 13 11 11 9 8 13 19 29 33 38 41 38 23 7 19 27 11 4 5 5 4 2 2 10 4 5 5 3 5 4 5 3 6 3 18 10 11 11 13 18 18 10 11 8 14 8 5 5 6
24 21 20 17 14 13 14 14 16 16 17 17 24 25 34 42 38 10 21 41 24 11 4 6 3 3 4 5 5 2 6 5 5 4 3 5 6 3 9 7 9 15 14 12 14 10 7 8 8 10 8 17 16 15
23 21 21 19 13 13 15 19 23 24 18 12 12 16 16 15 9 7 32 21 10 6 6 6 3 1 2 1 5 4 4 5 2 3 3 6 6 10 6 12 15 17 11 12 11 14 15 17 15 13 15 14 17 13
24 23 22 19 15 15 16 20 22 19 8 5 8 7 7 5 7 8 7 4 3 2 1 3 2 3 3 2 4 5 4 5 3 1 5 3 6 3 1 8 15 13 18 21 21 15 15 14 14 13 14 13 13 13
24 23 21 21 19 15 12 19 29 13 8 6 7 5 1 3 3 3 4 4 4 6 6 3 2 7 2 3 5 4 5 4 4 4 5 5 4 3 6 10 11 15 15 12 17 15 15 18 16 16 15 15 14 13
23 23 19 21 20 20 20 21 21 7 2 1 1 1 0 4 4 4 2 3 1 4 3 5 5 2 4 5 5 4 3 3 4 8 4 5 4 13 17 16 16 18 22 21 18 21 19 18 17 16 15 14 14 13
23 23 23 18 24 22 25 24 20 14 3 3 2 3 3 3 5 3 2 2 3 3 3 4 4 2 2 3 5 4 5 3 11 3 4 4 10 15 18 19 19 17 20 21 18 17 19 19 17 18 17 15 15 13
23 22 20 17 28 27 27 26 20 7 4 4 5 6 5 4 5 3 3 1 2 9 14 6 5 3 1 4 3 5 3 6 2 2 3 8 16 17 15 16 22 19 18 19 18 18 18 19 19 18 16 15 17 16
23 22 13 16 27 27 27 21 10 5 3 4 4 5 7 4 2 4 2 8 7 7 8 6 5 4 5 5 3 5 3 3 4 3 3 13 18 18 17 16 19 19 18 17 18 19 19 19 19 17 14 13 13 13
24 14 7 26 28 30 27 15 5 3 4 4 7 3 2 6 11 10 9 8 5 1 2 4 4 4 4 3 3 2 6 2 1 1 10 18 18 17 17 17 17 17 17 18 18 18 18 17 17 16 15 15 16 18
15 2 21 24 28 26 15 6 6 5 4 4 4 4 5 5 6 4 5 7 6 5 6 4 5 4 1 3 3 1 2 1 1 7 12 16 21 19 17 17 17 17 17 17 17 17 16 17 18 18 18 13 15 16
2 12 23 24 20 8 5 7 4 5 5 4 5 3 2 3 3 5 5 8 6 3 3 4 3 3 3 3 0 1 2 4 7 10 13 16 18 16 16 19 17 17 17 16 17 17 16 17 16 14 16 15 14 13
13 17 18 18 7 3 4 5 4 3 3 2 3 3 4 2 3 1 3 8 8 5 5 3 4 3 2 2 1 4 8 6 10 8 8 12 16 17 16 16 17 18 18 17 17 15 13 12 15 15 14 13 12 11
10 11 11 10 4 3 2 2 2 3 2 2 2 3 3 3 2 5 7 8 4 3 3 3 2 1 1 3 2 3 10 14 17 14 9 9 11 16 17 17 15 16 16 16 15 16 14 12 11 13 13 14 15 12
8 6 11 5 3 4 2 2 3 2 3 3 4 2 3 2 3 3 3 5 4 3 2 1 1 2 2 3 1 8 14 15 15 12 13 13 10 15 15 14 16 16 17 15 16 13 12 12 13 12 14 14 14 14
3 10 3 3 3 3 2 2 1 1 2 2 4 2 3 3 3 4 3 2 2 3 4 3 2 2 1 3 4 6 10 11 11 14 14 18 14 15 15 15 16 15 15 15 15 15 13 13 14 14 17 16 15 15
7 4 2 3 1 2 1 3 1 1 3 6 2 3 0 1 1 3 2 3 4 6 7 7 3 2 3 3 6 7 11 15 14 14 15 13 14 14 15 14 15 17 14 10 13 16 16 15 17 18 17 16 16 14
3 2 1 1 2 2 2 1 1 2 2 4 5 3 3 3 3 1 3 3 4 2 4 5 7 6 4 5 6 8 9 10 13 12 14 18 17 15 15 15 14 13 16 17 16 15 16 16 18 17 17 18 17 16
1 2 1 3 0 3 3 2 1 2 4 4 5 3 4 4 3 3 3 3 4 5 5 4 7 8 10 9 3 6 7 14 17 16 12 14 17 15 12 12 12 14 18 19 16 18 17 16 16 17 18 19 18 16
2 1 3 6 3 4 5 5 6 6 4 4 4 2 2 4 3 4 2 1 1 1 4 5 4 8 11 9 9 11 13 13 15 14 14 16 17 19 17 16 14 9 8 16 22 19 19 18 19 19 18 18 18 18
2 2 2 4 2 2 2 1 2 3 4 4 6 4 3 3 4 2 0 1 1 1 3 4 4 8 8 7 3 8 14 13 10 11 13 15 16 18 20 20 19 14 16 17 18 22 24 21 20 19 19 17 18 19
5 2 5 4 3 2 3 3 4 5 3 4 7 5 6 5 2 1 1 2 1 1 2 4 5 5 6 6 12 16 15 15 17 19 17 13 8 8 14 13 13 20 17 16 17 17 19 21 21 21 21 21 18 15
4 2 4 5 2 3 5 4 4 3 2 7 5 3 3 1 2 3 4 5 4 3 6 6 7 6 8 11 11 13 18 19 21 21 20 15 10 7 10 16 16 15 16 16 14 17 21 21 21 22 21 20 18 17
3 4 3 4 5 4 3 2 1 1 1 2 4 4 3 2 3 3 6 7 6 5 3 3 6 3 6 9 11 10 4 6 11 20 22 22 19 16 17 17 17 17 17 19 19 19 20 20 19 16 17 18 18 16
0 3 3 3 4 2 1 2 2 2 2 2 3 4 4 4 2 5 6 6 3 2 3 5 6 4 5 8 8 11 11 6 6 9 8 12 14 18 17 17 18 18 19 21 21 21 21 19 20 20 21 21 20 19
3 4 6 4 2 2 2 1 2 2 2 2 2 2 4 3 3 3 9 8 4 5 5 5 6 4 3 5 5 4 3 8 11 13 15 15 16 18 19 18 18 19 20 21 20 22 24 23 21 21 22 22 20 19
2 2 2 3 3 4 3 3 2 1 1 2 4 5 4 6 4 3 7 10 5 7 7 5 5 2 2 2 4 4 6 7 8 11 14 17 20 20 18 18 18 20 23 21 21 22 24 24 22 22 22 22 20 19
Wind_Direction
289 287 286 286 285 280 272 262 256 251 247 247 242 236 231 230 228 221 237 214 209 205 210 205 212 214 217 228 237 245 236 212 205 211 197 176 193 208 207 219 219 211 202 211 177 240 251 186 155 201 186 115 155 130
299 296 295 298 299 301 305 265 251 248 246 245 240 237 230 226 226 215 232 210 214 218 236 219 232 221 228 236 265 238 261 262 191 182 210 185 179 174 192 213 199 223 216 211 201 232 177 86 156 114 164 144 125 116
304 299 307 314 323 330 334 320 265 252 248 241 239 238 232 226 220 214 217 192 199 216 226 234 218 224 237 236 228 253 249 238 195 179 173 197 203 177 196 214 187 182 167 212 172 185 137 111 93 93 109 118 117 109
315 316 315 320 313 321 321 315 297 272 260 249 246 241 236 230 223 216 208 196 189 158 216 226 216 240 226 209 205 223 246 265 285 204 208 192 211 199 209 205 212 209 174 194 198 122 109 127 139 136 110 103 106 113
324 320 324 324 327 321 315 308 296 275 266 260 264 250 241 228 220 218 213 213 194 191 199 218 177 204 193 212 211 220 233 239 235 208 179 202 135 143 71 119 219 182 178 194 227 179 207 195 160 148 135 156 168 155
340 333 330 326 322 321 326 358 336 316 320 346 321 287 264 223 203 178 155 211 192 174 181 247 312 185 226 261 220 217 216 218 168 173 134 105 111 160 184 221 173 169 128 136 175 121 105 154 159 173 196 194 174 189
349 349 347 336 333 335 348 11 3 337 344 343 331 326 349 187 172 172 185 156 174 157 177 260 213 184 190 278 190 150 108 125 113 113 145 144 131 134 246 238 181 157 131 127 130 121 115 169 191 198 195 148 121 108
350 354 358 354 0 10 4 359 1 350 350 359 344 359 36 87 112 115 130 137 143 109 121 258 249 155 107 208 140 73 91 80 42 109 101 123 107 91 236 195 151 143 137 145 153 87 128 146 108 75 107 118 104 93
349 357 2 359 1 1 354 347 342 339 359 3 338 356 28 34 48 50 125 115 77 112 196 215 182 114 119 30 100 83 94 99 117 107 129 132 144 207 223 179 157 145 155 152 115 107 103 105 99 95 104 100 109 105
349 353 354 357 354 344 345 344 347 342 27 9 21 26 42 34 33 60 53 83 100 280 272 284 68 106 22 44 71 85 69 93 112 144 115 142 200 209 203 183 159 143 135 135 126 124 116 105 102 97 99 97 100 101
348 349 351 357 357 353 10 5 8 14 61 31 23 39 259 65 102 76 100 132 157 184 190 190 187 130 164 151 101 60 115 136 120 172 142 165 201 204 147 117 114 118 120 102 112 120 122 127 126 114 102 99 102 101
345 347 346 358 1 2 350 343 353 21 16 265 162 130 247 27 55 75 98 153 145 156 163 132 109 188 141 161 109 133 113 121 114 143 118 177 191 152 135 120 109 111 112 106 106 113 115 116 116 114 111 105 101 101
343 343 341 344 356 353 341 337 343 335 29 120 121 82 41 354 57 48 8 117 139 126 127 124 125 147 78 55 76 84 75 74 128 142 182 200 141 138 128 118 105 100 104 105 105 103 107 108 108 112 109 105 101 101
338 338 333 339 349 341 336 335 340 3 46 56 47 41 43 26 7 4 337 58 114 114 109 113 85 96 11 67 61 74 83 137 107 161 225 152 150 141 132 123 119 119 117 118 119 116 112 109 106 102 104 109 111 97
335 332 335 342 340 337 336 336 349 21 51 62 52 51 37 329 301 305 327 107 92 122 123 108 62 76 45 88 51 118 132 164 195 213 176 145 143 135 127 127 127 130 130 123 123 119 115 111 108 105 99 101 111 111
333 329 353 343 339 335 332 334 1 19 58 60 46 66 357 48 41 74 55 66 8 27 127 67 106 82 58 100 95 89 143 179 234 190 132 136 138 135 130 131 130 133 127 124 123 123 118 118 117 108 104 107 112 112
332 342 342 339 338 329 337 350 8 37 55 53 56 34 71 67 84 41 20 11 337 48 29 21 50 60 92 63 61 98 94 24 325 119 136 143 141 135 129 128 130 131 123 123 124 121 113 112 116 121 117 113 103 101
315 326 331 333 340 327 339 18 37 44 64 53 83 36 37 14 27 32 10 16 42 54 29 57 126 64 72 83 155 194 96 73 97 112 120 123 123 124 130 135 137 140 128 123 120 120 127 132 127 122 123 122 114 110
302 308 315 327 339 358 3 12 30 72 54 51 89 69 84 52 40 18 40 57 69 83 95 51 59 50 30 245 170 150 151 137 128 112 107 121 130 132 136 135 133 129 128 128 127 132 134 130 135 138 138 135 129 126
317 310 323 327 345 19 13 22 28 88 109 126 83 79 71 70 5 26 55 41 47 40 43 46 68 345 341 336 217 159 144 134 124 117 119 122 130 132 137 137 136 131 121 116 118 121 120 116 130 140 146 142 140 143
334 332 336 360 11 51 80 2 42 65 124 104 132 80 78 51 69 47 46 1 10 19 47 213 264 300 269 301 212 138 147 150 154 152 163 155 155 137 135 129 129 128 130 133 137 139 138 145 144 145 138 132 133 135
302 335 338 350 46 22 57 28 71 41 83 109 131 96 125 148 150 170 133 112 221 235 206 204 224 190 171 108 126 155 147 123 110 114 116 133 147 146 145 142 138 137 143 149 148 148 143 140 133 125 124 127 127 129
316 355 359 23 96 53 199 357 186 165 150 171 124 121 148 169 117 149 193 216 242 228 212 205 197 193 190 130 114 117 150 149 147 146 147 147 142 141 142 146 143 140 140 141 139 142 144 138 134 130 129 130 131 127
331 351 88 141 139 188 344 106 83 136 111 152 162 172 194 169 148 185 250 243 244 324 212 219 172 153 110 141 177 175 168 152 140 137 144 141 143 147 146 142 143 148 150 142 139 139 141 143 138 138 142 144 144 141
167 208 138 185 277 142 153 149 158 193 177 167 152 159 174 156 177 222 237 262 355 0 353 336 212 208 198 203 197 166 168 162 158 158 160 144 136 131 130 133 136 142 141 139 146 147 150 147 146 149 152 153 152 150
218 235 187 189 183 178 179 170 190 184 158 156 184 120 131 157 203 244 222 186 178 19 8 352 269 219 217 208 191 187 183 158 143 152 166 159 156 153 149 147 152 163 168 155 151 154 157 157 157 157 159 160 157 152
235 239 226 225 224 156 148 109 138 150 178 171 169 150 142 194 228 245 277 218 265 325 329 339 316 236 236 210 172 147 146 148 160 167 155 156 153 154 157 164 177 179 162 158 155 158 164 167 165 165 164 163 168 168
222 241 197 184 191 184 149 154 179 198 203 173 142 179 179 191 174 48 39 6 353 337 325 328 335 308 230 191 143 127 120 114 107 104 98 81 82 140 147 137 139 151 157 157 156 153 158 160 163 165 167 172 174 173
225 243 167 191 173 184 205 193 210 210 159 171 166 147 148 96 72 32 3 336 330 63 34 23 21 51 86 104 122 134 143 143 138 150 157 159 159 168 146 137 138 143 143 140 138 151 157 157 160 164 167 165 165 159
233 181 161 172 170 196 198 181 112 151 53 102 110 105 88 79 56 18 16 34 42 44 40 23 11 63 121 137 140 147 159 178 170 166 169 182 192 166 159 149 145 144 138 133 127 118 113 117 120 124 132 139 146 150
236 155 143 171 208 204 120 103 97 83 53 70 34 95 122 126 107 42 32 10 12 16 16 32 43 46 112 143 159 165 182 202 171 163 146 146 150 157 156 150 143 140 139 138 140 142 141 140 144 148 152 157 161 161
177 185 156 162 168 105 93 135 117 119 31 133 118 112 139 118 109 64 8 352 359 20 5 352 4 39 127 138 139 134 129 168 164 145 142 149 150 149 144 139 138 140 140 141 143 146 149 150 154 159 163 165 165 166
113 109 114 142 145 180 186 127 102 96 17 224 214 189 156 149 137 26 354 12 1 355 349 343 341 31 111 122 127 131 138 139 140 138 144 145 146 142 139 139 140 142 142 143 146 151 154 156 159 162 165 167 168 169